[[{"header":{"parameterUnit":"m.s-1","parameterCategory":1,"la1":30.2991,"la2":30.254,"lo1":-89.0895,"lo2":-89.0444,"dy":0.0017,"dx":0.0017,"nx":28,"ny":28,"refTime":"2025-08-17T21:00:00:Z","depth":0,"parameterNumber":2,"parameterNumberName":"U-component_of_WINDS"},"data":[0,0,0,0,0,0,0,0,0,0,0,0,0,0,0,0,0,0,0,0,0,0,0,0,0,0,0,0,0,0,0,0,0,0,0,0,0,0,0,0,0,0,0,0,0,0,0,0,0,0,0,0,0,0,0,0,0,0,-2.3546,-2.3548,0,-2.3772,-2.3775,-2.3777,-2.3876,-2.3875,-2.3875,-2.3875,-2.4108,-2.4115,-2.4121,0,0,0,0,0,0,0,0,0,0,0,0,0,-2.3198,-2.3204,-2.3545,-2.3548,-2.3551,-2.3772,-2.3775,-2.3778,-2.3876,-2.3875,-2.3875,-2.3875,-2.4106,-2.4114,-2.4122,0,0,0,0,0,0,0,0,0,0,0,0,0,-2.3379,-2.3206,-2.3545,-2.3626,-2.3636,-2.3771,-2.3775,-2.3779,-2.3876,-2.3875,-2.3875,-2.3874,-2.4104,-2.4113,-2.4123,-2.4195,0,0,-2.4153,-2.4157,0,0,0,0,0,0,0,0,-2.3369,-2.3392,-2.3612,-2.3621,-2.3632,-2.3795,-2.3738,-2.3918,-2.3876,-2.3785,-2.3875,-2.3874,-2.4005,-2.4023,-2.4066,-2.4206,-2.4216,-2.4154,-2.416,-2.4164,-2.4167,0,0,0,0,0,0,0,-2.3356,-2.3383,-2.3635,-2.3615,-2.3627,-2.3652,-2.3677,-2.3773,-2.3895,-2.3793,-2.38,-2.3826,-2.401,-2.4057,-2.4073,-2.4219,-2.4154,-2.4162,-2.4168,-2.4172,-2.4428,-2.4429,0,0,0,0,0,0,-2.333,-2.3372,-2.3628,-2.3642,-2.3496,-2.3659,-2.3687,-2.3743,-2.3894,-2.3917,-2.3826,-2.383,-2.404,-2.4061,-2.4081,-2.4175,-2.4164,-2.4173,-2.4179,-2.4427,-2.4428,-2.4429,0,0,0,0,0,0,-2.3322,-2.3352,-2.3619,-2.3509,-2.3545,-2.3665,-2.3728,-2.3748,-2.3795,-2.392,-2.3942,-2.3851,-2.4041,-2.4067,-2.4166,-2.4184,-2.4178,-2.4187,-2.4426,-2.4427,-2.4429,-2.4363,0,0,0,0,0,0,-2.3312,-2.3349,-2.3377,-2.3509,-2.355,-2.3699,-2.3729,-2.3753,-2.3811,-2.3818,-2.3949,-2.397,-2.4042,-2.415,-2.4175,-2.4198,-2.4194,-2.4425,-2.4427,-2.4428,-2.4364,-2.4361,-2.436,0,0,0,0,0,-2.3299,-2.335,-2.3378,-2.3408,-2.3588,-2.37,-2.3724,-2.3805,-2.3812,-2.3842,-2.3922,-2.3966,-2.4178,-2.4159,-2.4188,-2.4214,-2.4424,-2.4426,-2.4428,-2.4365,-2.4362,-2.436,0,0,0,0,0,0,-2.3218,-2.3369,-2.3401,-2.3496,-2.3584,-2.3716,-2.3756,-2.38,-2.3888,-2.3891,-2.3989,-2.4017,-2.4107,-2.4171,-2.4147,-2.4291,-2.4305,-2.4313,-2.4247,-2.4245,-2.4243,-2.4226,-2.4202,0,0,0,0,0,-2.3211,-2.3288,-2.3416,-2.3487,-2.353,-2.3635,-2.3687,-2.3742,-2.3837,-2.3875,-2.3962,-2.4054,-2.4141,-2.4197,-2.4284,-2.4373,-2.4403,-2.4405,-2.4403,-2.4401,-2.4407,-2.4458,-2.4461,-2.4436,-2.4436,-2.4435,0,0,-2.3197,-2.3289,-2.3332,-2.3473,-2.3548,-2.3626,-2.3666,-2.3747,-2.3807,-2.3888,-2.3986,-2.4052,-2.4161,-2.4254,-2.43,-2.431,-2.442,-2.4403,-2.4401,-2.4408,-2.446,-2.4463,-2.4465,-2.4437,-2.4437,-2.4436,0,0,-2.3213,-2.329,-2.3358,-2.3431,-2.3544,-2.3613,-2.3629,-2.3754,-2.3802,-2.3901,-2.3964,-2.4036,-2.4184,-2.4259,-2.4316,-2.4358,-2.4402,-2.4384,-2.4374,-2.4423,-2.4425,-2.4427,-2.4442,-2.4446,-2.4389,-2.4389,-2.4389,0,-2.3182,-2.3302,-2.3387,-2.3465,-2.3525,-2.3601,-2.367,-2.3738,-2.3873,-2.3913,-2.3922,-2.411,-2.4188,-2.43,-2.431,-2.4354,-2.4375,-2.437,-2.4417,-2.4421,-2.4424,-2.4439,-2.4445,-2.4386,-2.4386,-2.4387,-2.4387,0,-2.3259,-2.3341,-2.3382,-2.351,-2.3575,-2.3648,-2.3744,-2.3799,-2.3848,-2.3916,-2.4016,-2.4113,-2.4221,-2.4251,-2.4301,-2.437,-2.4373,-2.4398,-2.4414,-2.4422,-2.4438,-2.4445,-2.4382,-2.4383,-2.4384,-2.4384,0,0,-2.323,-2.3403,-2.3417,-2.3475,-2.3604,-2.367,-2.3746,-2.3851,-2.3896,-2.3987,-2.4054,-2.4177,-2.4201,-2.4265,-2.4324,-2.4366,-2.4393,-2.4387,-2.4391,-2.4385,-2.4476,-2.4457,-2.4462,-2.4423,-2.4424,-2.4426,-2.4467,0,-2.3263,-2.3403,-2.3481,-2.3589,-2.3666,-2.3738,-2.3805,-2.3891,-2.3957,-2.4032,-2.4105,-2.4191,-2.4216,-2.4255,-2.4301,-2.438,-2.4413,-2.4378,-2.4486,-2.4489,-2.4457,-2.4471,-2.4451,-2.4485,-2.4474,-2.4475,-2.4476,0,-2.3321,-2.3409,-2.3523,-2.3643,-2.3678,-2.3737,-2.3839,-2.391,-2.4009,-2.4054,-2.4125,-2.4183,-2.4266,-2.4274,-2.4391,-2.4365,-2.4414,-2.4459,-2.4463,-2.4476,-2.4483,-2.4485,-2.4498,-2.4503,-2.4487,-2.4486,-2.4485,0,-2.3288,-2.3436,-2.3523,-2.3571,-2.3713,-2.3752,-2.3813,-2.3912,-2.397,-2.4059,-2.4097,-2.4195,-2.4249,-2.4323,-2.4405,-2.4404,-2.4514,-2.4529,-2.4553,-2.4551,-2.4574,-2.4571,-2.4595,-2.4604,-2.4604,-2.4604,-2.4604,0,-2.3318,-2.3385,-2.3511,-2.3564,-2.3642,-2.3731,-2.3805,-2.3872,-2.3959,-2.4027,-2.4096,-2.4159,-2.4264,-2.434,-2.4404,-2.4491,-2.4515,-2.4553,-2.457,-2.4548,-2.4542,-2.4581,-2.4581,-2.4605,-2.4605,-2.4605,-2.4605,0,-2.3295,-2.3382,-2.3482,-2.3607,-2.364,-2.3692,-2.38,-2.3855,-2.3923,-2.4009,-2.4034,-2.4142,-2.4235,-2.4324,-2.4448,-2.4492,-2.4578,-2.46,-2.4544,-2.4553,-2.4573,-2.457,-2.4623,-2.4635,-2.4634,-2.4634,-2.4634,0,-2.3308,-2.3361,-2.3492,-2.3542,-2.3601,-2.3681,-2.374,-2.383,-2.3889,-2.4005,-2.4046,-2.4144,-2.4226,-2.4371,-2.4461,-2.4556,-2.4581,-2.4593,-2.4596,-2.4571,-2.4581,-2.4577,-2.4583,-2.4591,-2.459,-2.459,-2.459,0,-2.3321,-2.3361,-2.3443,-2.354,-2.3609,-2.3689,-2.3773,-2.381,-2.3916,-2.3978,-2.4073,-2.4137,-2.4263,-2.4359,-2.4465,-2.4528,-2.4577,-2.4588,-2.4599,-2.4577,-2.4542,-2.4561,-2.4539,-2.4586,-2.4587,-2.4587,-2.4587,-2.4587,-2.3317,-2.3368,-2.3467,-2.3556,-2.3628,-2.3704,-2.3762,-2.3837,-2.3918,-2.4027,-2.4075,-2.4171,-2.4269,-2.4416,-2.4478,-2.4555,-2.4566,-2.4582,-2.4586,-2.4588,-2.4584,-2.4529,-2.4574,-2.4574,-2.4575,-2.4575,-2.4575,0,-2.3335,-2.3402,-2.3483,-2.3597,-2.3666,-2.3705,-2.3799,-2.3855,-2.3938,-2.4025,-2.4105,-2.4214,-2.4307,-2.4403,-2.4502,-2.4545,-2.4569,-2.4568,-2.4566,-2.458,-2.4568,-2.4548,-2.4546,-2.4546,-2.4546,-2.4546,-2.4546,-2.4546,-2.3352,-2.3439,-2.3491,-2.3615,-2.3682,-2.3776,-2.3826,-2.3897,-2.3967,-2.4085,-2.4162,-2.4224,-2.4315,-2.4421,-2.4508,-2.4534,-2.4568,-2.456,-2.4592,-2.4579,-2.4581,-2.4582,-2.4565,-2.4566,-2.4566,-2.4598,-2.4598,-2.4598]},{"header":{"parameterUnit":"m.s-1","parameterCategory":1,"la1":30.2991,"la2":30.254,"lo1":-89.0895,"lo2":-89.0444,"dy":0.0017,"dx":0.0017,"nx":28,"ny":28,"refTime":"2025-08-17T21:00:00:Z","depth":0,"parameterNumber":3,"parameterNumberName":"V-component_of_WINDS"},"data":[0,0,0,0,0,0,0,0,0,0,0,0,0,0,0,0,0,0,0,0,0,0,0,0,0,0,0,0,0,0,0,0,0,0,0,0,0,0,0,0,0,0,0,0,0,0,0,0,0,0,0,0,0,0,0,0,0,0,-3.5253,-3.5253,0,-3.526,-3.526,-3.526,-3.5221,-3.522,-3.5219,-3.5217,-3.5221,-3.5222,-3.5223,0,0,0,0,0,0,0,0,0,0,0,0,0,-3.5206,-3.5207,-3.5253,-3.5253,-3.5253,-3.526,-3.526,-3.526,-3.5221,-3.522,-3.5218,-3.5217,-3.5221,-3.5222,-3.5223,0,0,0,0,0,0,0,0,0,0,0,0,0,-3.5221,-3.5207,-3.5253,-3.5234,-3.5233,-3.5259,-3.526,-3.526,-3.5221,-3.522,-3.5218,-3.5216,-3.522,-3.5222,-3.5224,-3.5267,0,0,-3.5229,-3.5229,0,0,0,0,0,0,0,0,-3.522,-3.5222,-3.5237,-3.5236,-3.5234,-3.5238,-3.5244,-3.5262,-3.5222,-3.5226,-3.5217,-3.5216,-3.5228,-3.5229,-3.5233,-3.5267,-3.5267,-3.5229,-3.523,-3.5231,-3.5231,0,0,0,0,0,0,0,-3.5219,-3.5222,-3.5255,-3.5237,-3.5236,-3.5226,-3.5226,-3.5248,-3.5236,-3.5225,-3.5222,-3.5224,-3.5227,-3.5232,-3.5233,-3.5267,-3.5229,-3.523,-3.5231,-3.5232,-3.534,-3.5342,0,0,0,0,0,0,-3.5221,-3.5221,-3.5255,-3.5255,-3.5223,-3.5228,-3.5228,-3.5238,-3.5235,-3.5233,-3.5225,-3.5222,-3.523,-3.5231,-3.5233,-3.5285,-3.5231,-3.5232,-3.5233,-3.5338,-3.5341,-3.5343,0,0,0,0,0,0,-3.522,-3.5224,-3.5255,-3.5238,-3.5241,-3.5231,-3.5242,-3.5239,-3.5244,-3.5236,-3.5233,-3.5233,-3.5229,-3.5231,-3.526,-3.5285,-3.5233,-3.5235,-3.5336,-3.5339,-3.5342,-3.5389,0,0,0,0,0,0,-3.5219,-3.5224,-3.524,-3.5238,-3.5242,-3.5281,-3.5243,-3.524,-3.5248,-3.5244,-3.5242,-3.524,-3.5228,-3.5258,-3.5262,-3.5286,-3.5236,-3.5334,-3.5338,-3.5341,-3.5385,-3.5393,-3.54,0,0,0,0,0,-3.5217,-3.5252,-3.5241,-3.5245,-3.5262,-3.5283,-3.5285,-3.527,-3.525,-3.5266,-3.5261,-3.524,-3.5282,-3.5261,-3.5265,-3.5291,-3.5332,-3.5337,-3.5341,-3.5382,-3.5392,-3.54,0,0,0,0,0,0,-3.5254,-3.5251,-3.5239,-3.5274,-3.528,-3.5276,-3.5296,-3.5281,-3.5291,-3.5286,-3.5267,-3.5267,-3.53,-3.5298,-3.5275,-3.5334,-3.5304,-3.5309,-3.5334,-3.5343,-3.535,-3.5349,-3.5237,0,0,0,0,0,-3.5267,-3.5284,-3.5281,-3.5312,-3.5316,-3.5306,-3.5314,-3.5303,-3.5307,-3.5309,-3.5305,-3.531,-3.5324,-3.5333,-3.5346,-3.5386,-3.5386,-3.5406,-3.5413,-3.5419,-3.5424,-3.5447,-3.5456,-3.5357,-3.5356,-3.5356,0,0,-3.5292,-3.5293,-3.5304,-3.532,-3.5322,-3.5341,-3.5308,-3.5328,-3.5342,-3.5311,-3.5339,-3.5338,-3.5341,-3.5377,-3.5392,-3.5376,-3.5452,-3.5425,-3.543,-3.5431,-3.5452,-3.5462,-3.547,-3.5359,-3.5359,-3.5358,0,0,-3.5348,-3.535,-3.5378,-3.5382,-3.5388,-3.5382,-3.5389,-3.5389,-3.5388,-3.5416,-3.5394,-3.5411,-3.5435,-3.5439,-3.5444,-3.5508,-3.5489,-3.5512,-3.555,-3.5573,-3.5581,-3.5588,-3.5611,-3.5619,-3.5517,-3.5517,-3.5517,0,-3.5378,-3.5406,-3.5393,-3.5417,-3.5425,-3.5401,-3.543,-3.5434,-3.5443,-3.5449,-3.5432,-3.5465,-3.5465,-3.5502,-3.5518,-3.5523,-3.5531,-3.5511,-3.5581,-3.5588,-3.5594,-3.5616,-3.5625,-3.552,-3.552,-3.5519,-3.5519,0,-3.5444,-3.5464,-3.5486,-3.5498,-3.5509,-3.5534,-3.5526,-3.5538,-3.5528,-3.5524,-3.5554,-3.5555,-3.5568,-3.5577,-3.5565,-3.5613,-3.5604,-3.5584,-3.5553,-3.5606,-3.5627,-3.5635,-3.5524,-3.5523,-3.5522,-3.5521,0,0,-3.5519,-3.5528,-3.5536,-3.5542,-3.5549,-3.5564,-3.559,-3.5605,-3.5617,-3.5625,-3.5646,-3.567,-3.5654,-3.566,-3.5649,-3.567,-3.5721,-3.5648,-3.5648,-3.5662,-3.5775,-3.5789,-3.5799,-3.571,-3.5712,-3.5713,-3.5775,0,-3.5574,-3.5619,-3.5611,-3.5655,-3.5674,-3.5654,-3.5677,-3.5684,-3.5682,-3.5699,-3.5696,-3.5714,-3.569,-3.5694,-3.5714,-3.5711,-3.5744,-3.5706,-3.5729,-3.573,-3.5728,-3.581,-3.5824,-3.5882,-3.5783,-3.5784,-3.5785,0,-3.5643,-3.5658,-3.5704,-3.5711,-3.5719,-3.574,-3.5755,-3.5771,-3.5779,-3.5776,-3.5786,-3.5773,-3.5799,-3.577,-3.5806,-3.5781,-3.5791,-3.5791,-3.5793,-3.5794,-3.576,-3.5812,-3.59,-3.5909,-3.5798,-3.5797,-3.5796,0,-3.5695,-3.5725,-3.5757,-3.5764,-3.5772,-3.5788,-3.5792,-3.5799,-3.581,-3.5823,-3.583,-3.5846,-3.5854,-3.5867,-3.5859,-3.5838,-3.5897,-3.5866,-3.5896,-3.5896,-3.5907,-3.5906,-3.5998,-3.5915,-3.5915,-3.5915,-3.5915,0,-3.5756,-3.5786,-3.5781,-3.5801,-3.5834,-3.5825,-3.5858,-3.5859,-3.5867,-3.5887,-3.5871,-3.589,-3.5879,-3.5897,-3.5891,-3.5923,-3.5927,-3.5925,-3.5923,-3.5926,-3.5927,-3.5931,-3.5926,-3.5917,-3.5917,-3.5916,-3.5916,0,-3.5818,-3.5816,-3.585,-3.5857,-3.586,-3.5884,-3.589,-3.5909,-3.5908,-3.5934,-3.594,-3.5937,-3.5959,-3.5953,-3.5975,-3.5971,-3.6012,-3.6005,-3.601,-3.6007,-3.6037,-3.6035,-3.6134,-3.6147,-3.6056,-3.6057,-3.6058,0,-3.5857,-3.5879,-3.5891,-3.5904,-3.591,-3.5931,-3.5944,-3.5937,-3.595,-3.5964,-3.5981,-3.6002,-3.6018,-3.6053,-3.6053,-3.6071,-3.6064,-3.6098,-3.6066,-3.6069,-3.6064,-3.6063,-3.6065,-3.6103,-3.6104,-3.6105,-3.6106,0,-3.5926,-3.5926,-3.5944,-3.5964,-3.598,-3.5994,-3.6007,-3.6019,-3.6013,-3.6029,-3.6052,-3.6065,-3.609,-3.6111,-3.6128,-3.6132,-3.6118,-3.6117,-3.6124,-3.6127,-3.6129,-3.6128,-3.6026,-3.6113,-3.6113,-3.6112,-3.6112,-3.6111,-3.5977,-3.5998,-3.601,-3.6032,-3.6043,-3.6056,-3.6075,-3.6078,-3.6098,-3.6119,-3.6114,-3.614,-3.6151,-3.6173,-3.618,-3.62,-3.6187,-3.6198,-3.6201,-3.6204,-3.6208,-3.6127,-3.6203,-3.6203,-3.6203,-3.6203,-3.6203,0,-3.6047,-3.6055,-3.6076,-3.6096,-3.6115,-3.6103,-3.6118,-3.6133,-3.6158,-3.617,-3.6187,-3.6215,-3.6236,-3.624,-3.626,-3.6276,-3.627,-3.6281,-3.6279,-3.6281,-3.6218,-3.6209,-3.6286,-3.6286,-3.6286,-3.6286,-3.6286,-3.6286,-3.6084,-3.6119,-3.612,-3.6161,-3.6168,-3.6195,-3.6205,-3.6218,-3.6228,-3.626,-3.6279,-3.6282,-3.6291,-3.6313,-3.6332,-3.6333,-3.6341,-3.6354,-3.6352,-3.6293,-3.6285,-3.6277,-3.6269,-3.6356,-3.6356,-3.6413,-3.6414,-3.6414]}]]